This is the latest recevied weather packets stored in our database for station/object KC8UZG. If no packets are shown the sender has not sent any weather packets the latest 10 day(s).
| Time | Temp. | Humidity | Pressure | Rain* | Wind** | Luminosity | Snow |
|---|---|---|---|---|---|---|---|
| 1778103338 | 13.89° C | 63% | 1012.9 hPa | 0 mm | - | 102 W/m² | - |
| 1778102717 | 13.33° C | 62% | 1012.7 hPa | 0 mm | - | 101 W/m² | - |
| 1778102123 | 13.33° C | 61% | 1012.6 hPa | 0 mm | - | 108 W/m² | - |
| 1778101530 | 13.33° C | 62% | 1012.5 hPa | 0 mm | - | 114 W/m² | - |
| 1778100935 | 13.33° C | 63% | 1012.5 hPa | 0 mm | - | 94 W/m² | - |
| 1778100342 | 13.89° C | 64% | 1012.5 hPa | 0 mm | - | 107 W/m² | - |
| 1778099720 | 13.33° C | 63% | 1012.5 hPa | 0 mm | - | 104 W/m² | - |
| 1778099126 | 13.33° C | 62% | 1012.5 hPa | 0 mm | - | 91 W/m² | - |
| 1778098532 | 13.89° C | 62% | 1012.5 hPa | 0 mm | - | 82 W/m² | - |
| 1778097938 | 13.33° C | 62% | 1012.5 hPa | 0 mm | - | 135 W/m² | - |
| 1778097317 | 13.33° C | 64% | 1012.5 hPa | 0 mm | - | 82 W/m² | - |
| 1778096723 | 13.33° C | 63% | 1012.5 hPa | 0 mm | - | 136 W/m² | - |
| 1778096129 | 13.33° C | 62% | 1012.2 hPa | 0 mm | - | 85 W/m² | - |
| 1778095535 | 13.89° C | 62% | 1012.4 hPa | 0 mm | - | 122 W/m² | - |
| 1778094941 | 13.33° C | 63% | 1012.5 hPa | 0 mm | - | 162 W/m² | - |
| 1778094320 | 13.33° C | 62% | 1012.5 hPa | 0 mm | - | 100 W/m² | - |
| 1778093726 | 13.33° C | 62% | 1012.5 hPa | 0 mm | - | 107 W/m² | - |
| 1778093131 | 13.89° C | 61% | 1012.5 hPa | 0 mm | - | 125 W/m² | - |
| 1778092538 | 14.44° C | 62% | 1012.3 hPa | 0 mm | - | 193 W/m² | - |
| 1778091917 | 15° C | 62% | 1012.1 hPa | 0 mm | - | 318 W/m² | - |
| 1778091323 | 13.89° C | 63% | 1012.2 hPa | 0 mm | - | 288 W/m² | - |
| 1778090729 | 13.89° C | 62% | 1012.5 hPa | 0 mm | - | 235 W/m² | - |
| 1778090135 | 13.89° C | 64% | 1012.5 hPa | 0 mm | - | 145 W/m² | - |
| 1778089541 | 13.89° C | 63% | 1012.5 hPa | 0 mm | - | 162 W/m² | - |
| 1778088920 | 14.44° C | 65% | 1012.8 hPa | 0 mm | - | 264 W/m² | - |
* Rain latest hour (hover to see other rain measurements)
** Current wind speed in m/s (hover to see current wind gust speed)